[Iaude] MPEC C92: 2024 BC8 [a=1.88,e=0.52,i=4.1,H=25.4]
    mpec at cfa.harvard.edu 
    mpec at cfa.harvard.edu
       
    Thu Feb  8 19:11:54 EST 2024
    
    
  
M.P.E.C. 2024-C92                              Issued 2024 February 9, 00:10 UT
     The Minor Planet Electronic Circulars contain information on unusual
         minor planets, routine data on comets and natural satellites,
         and occasional editorial announcements.  They are published
    on behalf of Division F of the International Astronomical Union by the
          Minor Planet Center, Smithsonian Astrophysical Observatory,
                          Cambridge, MA 02138, U.S.A.
			  
             Prepared using the Tamkin Foundation Computer Network
                              MPC at CFA.HARVARD.EDU
            URL https://www.minorplanetcenter.net/    ISSN 1523-6714
                                    2024 BC8                                    
Observations:
     K24B08C* C2024 01 31.47203008 08 14.224+24 46 46.26         21.74wXEC092F52
     K24B08C  C2024 01 31.49693308 08 12.106+24 46 07.23         21.32wXEC092F52
     K24B08C  C2024 01 31.50928708 08 11.024+24 45 47.45         21.66wXEC092F52
     K24B08C  C2024 02 07.28627807 59 46.082+20 02 37.72         21.06wXEC092F52
     K24B08C  C2024 02 07.29919207 59 44.133+20 01 46.71         20.71wXEC092F52
     K24B08C  C2024 02 07.32504407 59 40.146+20 00 03.01         20.76wXEC092F52
     K24B08C  C2024 02 07.43818507 59 21.930+19 52 10.83         20.12GVEC092F52
     K24B08C  C2024 02 07.43900407 59 21.795+19 52 07.33         20.15GVEC092F52
     K24B08C 2C2024 02 07.84559607 58 46.099+19 21 51.34         20.3 GVEC092J04
     K24B08C 2C2024 02 07.84894407 58 45.619+19 21 36.90         20.0 GVEC092J04
     K24B08C 2C2024 02 07.85228707 58 45.133+19 21 22.32         20.5 GVEC092J04
     K24B08C KB2024 02 08.80757 07 56 44.11 +18 01 04.7          19.9 GXEC092M45
     K24B08C KB2024 02 08.81203 07 56 43.33 +18 00 40.6          19.8 GXEC092M45
Observer details:
F52 Pan-STARRS 2, Haleakala.  Observers J. Herman, T. Lowe, P. Minguez, A.
    Schultz, I. Smith.  Measurers K. Chambers, T. de Boer, J. Fairlamb, H.
    Gao, M. Huber, C.-C. Lin, E. Magnier, Y. Ramanjooloo, R. Wainscoat, R.
    Weryk.  1.8-m Ritchey-Chretien + CCD.
J04 ESA Optical Ground Station, Tenerife.  Observers P. Ruiz, M. Micheli, F.
    Ocana, L. Conversi.  Measurers M. Micheli, R. Kresken, F. Ocana.
    1.0-m f/4.4 reflector + CCD.
M45 Starhopper Observatory, Sfantu Gheorghe.  Observer F. Ursache.  0.41-m
    f/7.5 reflector + CMO.
Orbital elements:
2024 BC8                                                 Earth MOID = 0.0152 AU
Epoch 2023 Sept. 13.0 TT = JDT 2460200.5                Bell                    
M 287.62189              (2000.0)            P               Q                  
n   0.38273556     Peri.  233.49922     -0.98515527     +0.16425697             
a   1.8787551      Node   315.89300     -0.12544478     -0.88721505             
e   0.5165141      Incl.    4.11032     -0.11718660     -0.43112540             
P   2.58           H   25.41          G   0.15           U   8                  
Residuals in seconds of arc
240131 F52  0.0   0.0     240207 F52  0.1+  0.1+    240207 J04  0.1+  0.0
240131 F52  0.3+  0.0     240207 F52  0.1+  0.1+    240208 M45  0.1-  0.2+
240131 F52  0.3-  0.1-    240207 F52  0.0   0.1+    240208 M45  0.2-  0.3+
240207 F52  0.1+  0.1-    240207 J04  0.1-  0.1-
240207 F52  0.0   0.1+    240207 J04  0.0   0.0
Ephemeris:
2024 BC8                 a,e,i = 1.88, 0.52, 4                   q = 0.9084
Date    TT    R. A. (2000) Decl.     Delta      r    Elong.  Phase     V
2024 01 10    08 17 38.7 +27 52 54   0.2681  1.2453   166.1    10.9    23.7
...
2024 01 25    08 13 01.1 +26 36 28   0.1543  1.1374   172.0     6.9    22.1
...
2024 02 02    08 06 47.1 +24 05 03   0.1012  1.0838   165.9    12.8    21.4
...
2024 02 08    07 58 21.4 +19 10 39   0.06400 1.0465   159.4    19.4    20.5
2024 02 09    07 56 15.5 +17 44 23   0.05801 1.0405   158.0    20.8    20.3
2024 02 10    07 53 48.2 +15 58 14   0.05211 1.0347   156.5    22.3    20.1
...
2024 02 16    07 16 15.1 -15 42 56   0.02057 1.0015   131.6    47.5    18.8
...
2024 02 24    21 08 51.8 -54 59 45   0.03885 0.9637    47.6   130.7    24.1
...
2024 03 10    20 34 59.7 -38 06 16   0.1287  0.9175    50.9   122.9    25.8
M. P. C. Staff               (C) Copyright 2024 MPC           M.P.E.C. 2024-C92
    
    
More information about the Iaude
mailing list